Niagara Falls, NY

10:20 AM EST on January 20, 2018 (GMT -0500)
Niagara Falls International

Weather History for KIAG - April, 2013

Change the Weather History Date:

Sunday, April 7, 2013

  Actual Average Record
Temperature  
Mean Temperature 54 °F -  
Max Temperature 66 °F 49 °F 74 °F (1991)
Min Temperature 42 °F 31 °F 19 °F (2007)
Degree Days  
Heating Degree Days 12    
Growing Degree Days 4 (Base 50)    
Moisture  
Dew Point 31 °F    
Average Humidity 44    
Maximum Humidity 65    
Minimum Humidity 27    
Precipitation  
Precipitation 0.00 in - - ()
Sea Level Pressure  
Sea Level Pressure 29.83 in    
Wind  
Wind Speed 17 mph (SW)    
Max Wind Speed 36 mph    
Max Gust Speed 59 mph    
Visibility 10 miles    
Events Rain    
Averages and records for this station are not official NWS values.
T = Trace of Precipitation, MM = Missing Value Source: NWS Daily Summary

Daily Weather History Graph

Daily Weather History Graph

Search for Another Location

Airport or City:

Trip Planner

Search our weather history database for the weather conditions in past years. The results will help you decide how hot, cold, wet, or windy it might be!

Date:

Astronomy

Apr. 07, 2013 Rise Set
Actual Time 6:46 AM EDT 7:49 PM EDT
Civil Twilight 6:17 AM EDT 8:18 PM EDT
Nautical Twilight 5:43 AM EDT 8:53 PM EDT
Astronomical Twilight 5:07 AM EDT 9:29 PM EDT
Moon 5:07 AM EDT (4/7) 5:16 PM EDT (4/7)
Length of Visible Light 14h 00m
Length of Day
13h 02m
Waning Crescent, 8% of the Moon is Illuminated
Apr 7
Waning Crescent
Apr 10
New
Apr 18
First Quarter
Apr 25
Full
May 2
Last Quarter

Hourly Weather History & Observations

Time (EDT) Temp. Windchill Dew Point Humidity Pressure Visibility Wind Dir Wind Speed Gust Speed Precip Events Conditions
12:53 AM 45.0 °F 39.3 °F 19.9 °F 37% 29.95 in 10.0 mi SE 11.5 mph - N/A   Overcast
1:53 AM 48.9 °F - 16.0 °F 27% 29.90 in 10.0 mi South 10.4 mph - N/A   Clear
2:53 AM 50.0 °F - 18.0 °F 28% 29.86 in 10.0 mi South 15.0 mph - N/A   Clear
3:53 AM 48.9 °F - 19.9 °F 32% 29.83 in 10.0 mi South 11.5 mph 19.6 mph N/A   Clear
4:53 AM 51.1 °F - 21.9 °F 32% 29.81 in 10.0 mi South 19.6 mph 25.3 mph N/A   Scattered Clouds
5:53 AM 52.0 °F - 25.0 °F 35% 29.80 in 10.0 mi SSW 18.4 mph 25.3 mph N/A   Clear
6:53 AM 53.1 °F - 26.1 °F 35% 29.78 in 10.0 mi South 16.1 mph - N/A   Scattered Clouds
7:07 AM 53.6 °F - 26.6 °F 35% 29.74 in 10.0 mi South 19.6 mph 27.6 mph N/A   Mostly Cloudy
7:53 AM 54.0 °F - 27.0 °F 35% 29.75 in 10.0 mi South 18.4 mph 25.3 mph N/A   Mostly Cloudy
8:53 AM 57.9 °F - 30.0 °F 35% 29.73 in 10.0 mi SSW 24.2 mph 34.5 mph N/A   Mostly Cloudy
9:15 AM 57.2 °F - 30.2 °F 36% 29.71 in 10.0 mi SSW 23.0 mph 35.7 mph 0.00 in Rain Light Rain
9:53 AM 55.9 °F - 34.0 °F 44% 29.71 in 10.0 mi SSW 20.7 mph 33.4 mph 0.00 in Rain Light Rain
10:22 AM 57.2 °F - 33.8 °F 41% 29.69 in 10.0 mi SSW 21.9 mph 28.8 mph 0.00 in   Overcast
10:53 AM 57.9 °F - 33.1 °F 39% 29.72 in 10.0 mi SSW 19.6 mph 29.9 mph 0.00 in   Overcast
11:53 AM 62.1 °F - 37.0 °F 39% 29.72 in 10.0 mi SW 25.3 mph 39.1 mph N/A   Mostly Cloudy
12:53 PM 64.0 °F - 41.0 °F 43% 29.72 in 10.0 mi WSW 32.2 mph 52.9 mph N/A   Scattered Clouds
1:53 PM 64.0 °F - 42.1 °F 45% 29.72 in 10.0 mi WSW 35.7 mph 58.7 mph N/A   Scattered Clouds
2:53 PM 64.9 °F - 41.0 °F 42% 29.75 in 10.0 mi WSW 28.8 mph 43.7 mph N/A   Scattered Clouds
3:53 PM 62.1 °F - 42.1 °F 48% 29.78 in 10.0 mi West 23.0 mph 39.1 mph N/A   Scattered Clouds
4:53 PM 55.9 °F - 37.9 °F 51% 29.83 in 10.0 mi WNW 24.2 mph 35.7 mph N/A   Partly Cloudy
5:43 PM 53.6 °F - 35.6 °F 51% 29.86 in 10.0 mi WNW 25.3 mph 36.8 mph N/A   Scattered Clouds
5:53 PM 53.6 °F - 35.6 °F 51% 29.88 in 10.0 mi WNW 23.0 mph 29.9 mph N/A   Scattered Clouds
6:53 PM 48.2 °F - 35.6 °F 62% 29.93 in 10.0 mi WNW 18.4 mph 24.2 mph N/A   Scattered Clouds
7:53 PM 46.0 °F 39.9 °F 33.1 °F 61% 29.96 in 10.0 mi WNW 13.8 mph - N/A   Scattered Clouds
8:53 PM 44.1 °F 38.1 °F 33.1 °F 65% 30.00 in 10.0 mi NW 11.5 mph - N/A   Mostly Cloudy
9:53 PM 43.0 °F 36.8 °F 32.0 °F 65% 30.03 in 10.0 mi NW 11.5 mph - N/A   Mostly Cloudy
10:53 PM 43.0 °F 37.7 °F 30.9 °F 62% 30.04 in 10.0 mi NW 9.2 mph - N/A   Mostly Cloudy
11:53 PM 42.1 °F 37.1 °F 30.9 °F 65% 30.06 in 10.0 mi NNW 8.1 mph - N/A   Overcast